Regional Weather Roundup
Issued by NWS Newport/Morehead, NC

Current Version | Previous Version | Text Only | Print | Product List | Glossary Off
Versions: 1 2 3 4 5 6 7 8 9 10 11 12 13 14 15 16 17 18 19 20 21 22 23 24 25 26 27 28 29 30 31 32 33 34 35 36 37 38 39 40 41 42 43 44 45 46 47 48 49 50
000 ASUS42 KMHX 231825 RWRMHX WEATHER ROUNDUP FOR EASTERN NORTH CAROLINA NATIONAL WEATHER SERVICE NEWPORT/MOREHEAD CITY NC 200 PM EDT TUE AUG 23 2016 NOTE: "FAIR" INDICATES FEW OR NO CLOUDS BELOW 12,000 FEET WITH NO SIGNIFICANT WEATHER AND/OR OBSTRUCTIONS TO VISIBILITY NCZ015>017-031-032-045>047-102-103-231900- NORTH COAST CITY SKY/WX TMP DP RH WIND PRES REMARKS EDENTON CLOUDY 82 64 54 E5 30.31F ELIZABETH CITY SUNNY 83 59 44 NE10G21 30.31S KITTY HAWK CLEAR 85 64 49 N7 30.29F MANTEO SUNNY 81 59 47 NE13 30.30F $$ NCZ045>047-081-094-103-104-231900- CENTRAL COAST CITY SKY/WX TMP DP RH WIND PRES REMARKS FRISCO MOSUNNY 83 60 45 NE10G20 30.28F $$ NCZ095-097-098-100-101-231900- SOUTHERN COAST CITY SKY/WX TMP DP RH WIND PRES REMARKS BEAUFORT MOSUNNY 84 66 54 E10 30.28S CEDAR ISLAND NOT AVBL JACKSONVILLE MOSUNNY 86 60 41 NE7 30.27F PINEY ISLAND NOT AVBL WILMINGTON MOSUNNY 85 63 47 E8 30.27F $$ NCZ011>013-027>030-043-044-078>080-089-090>093-098-231900- COASTAL PLAIN CITY SKY/WX TMP DP RH WIND PRES REMARKS AHOSKIE MOSUNNY 81 61 50 NE3 30.30F CLINTON MOSUNNY 83 69 62 E3 30.29F ELIZABETHTOWN CLOUDY 85 66 53 CALM 30.27S GOLDSBORO MOSUNNY 87 63 44 NE10 30.27F GREENVILLE PTSUNNY 84 61 45 CALM 30.29F HAVELOCK MOSUNNY 86 61 42 E12 30.29F KENANSVILLE NOT AVBL KINSTON MOSUNNY 86 61 42 SE5 30.30S NEW BERN MOSUNNY 86 61 42 NE5 30.29F RICHLANDS PTSUNNY 85 64 49 N8 30.28F ROCKY MOUNT MOSUNNY 87 60 40 VRB3 30.30F WASHINGTON MOSUNNY 82 66 59 E6 30.29F WHITEVILLE MOSUNNY 87 63 44 SE5 30.26F $$ AMZ130-135-150-152-154-156-158-170-250-252-270-ANZ085-086-088-633-658-670-231900- MARINE OBSERVATIONS STATION/POSITION TIME TEMP WIND PRES WAVE SWELL AIR SEA DIR/SP/G HT/PER HT/PER (UTC) (F) (DEG/KT/KT) (MB) (FT/S) (FT/S) CHESAPEAKE LIGHT NOT AVBL 64 E VA BEACH 1650 77 81 20/ 14/ 17 1025.6 3/ 5 2/ 8 DUCK 1800 77 77 20/ 12/ 15 1025.6 2 E DUCK 1711 78 N/A 3/ 5 OREGON INLET 1800 79 78 20/ 11/ 15 1025.7 13E OREGON INLT 1800 78 N/A 3/ 5 2/13 HATTERAS CG 1800 81 80 30/ 11/ 15 1025.1 DIAMOND BUOY 1750 81 85 40/ 16/ 19 1024.8 4/ 8 2/ 8 CAPE LOOKOUT 1800 81 50/ 13/ 15 1024.9 BEAUFORT LAB 1800 82 82 50/ 8/ 11 1024.7 30 SE NEW RVR IN 1808 82 85 50/ 14/ 16 1024.8 30 SE NEW RVR IN 1725 85 N/A 3/ 4 27 SE WRIGHTSVLE 1808 83 85 50/ 12/ 17 1024.9 5 SE WRIGHTSVLE 1708 83 83 70/ 12/ 17 1026.1 225 S CAPE HAT 1750 83 85 50/ 16/ 17 1021.9 5/ 5 2/ 8 41 SE CHARLESTON 1750 84 85 40/ 16/ 19 1023.1 3/ 4 2/ 8 $$

USA.gov is the U.S. government's official web portal to all federal, state and local government web resources and services.